Location: Walton
(43.6794°N, 81.3017°W)
Time: 00:51:44
(UTC+00:00)

Cosmos 2180 Rocket - Pass Details

Date: 07 March 2026
Orbit: 952 x 1004 km, 82.9° (Epoch: 14 April)

Event Time Altitude Azimuth Distance (km) Brightness Sun altitude
Rises 00:59:03 0° 341° (NNW) 3,647 7.9 -18.6°
Reaches altitude 10° 01:01:56 10° 329° (NNW) 2,692 7.4 -19.1°
Maximum altitude 01:06:53 26° 275° (W) 1,767 6.6 -20.0°
Drops below altitude 10° 01:11:49 10° 221° (SW) 2,673 7.1 -20.8°
Sets 01:14:41 0° 209° (SSW) 3,616 7.7 -21.3°
